Roseburg, OR

8:57 PM PST on November 19, 2019 (GMT -0800)
Roseburg Regional

Weather History for KRBG - October, 2019

Change the Weather History Date:

Monday, October 21, 2019

  Actual Average Record
Temperature  
Mean Temperature 60 °F 54 °F  
Max Temperature 71 °F 64 °F 83 °F (2003)
Min Temperature 48 °F 44 °F 30 °F (1949)
Degree Days  
Heating Degree Days 5 11  
Month to date heating degree days 223 169  
Since 1 July heating degree days 301 258  
Cooling Degree Days 0 0  
Month to date cooling degree days 0 2  
Year to date cooling degree days 680 478  
Growing Degree Days 8 (Base 50)    
Moisture  
Dew Point 47 °F    
Average Humidity 67    
Maximum Humidity 93    
Minimum Humidity 40    
Precipitation  
Precipitation 0.00 in 0.10 in 1.15 in (1973)
Month to date precipitation 0.78 1.40  
Year to date precipitation 26.10 22.01  
Sea Level Pressure  
Sea Level Pressure 30.31 in    
Wind  
Wind Speed 2 mph (East)    
Max Wind Speed 7 mph    
Max Gust Speed -    
Visibility 10 miles    
Events      
T = Trace of Precipitation, MM = Missing Value Source: NWS Daily Summary

Daily Weather History Graph

Daily Weather History Graph

Search for Another Location

Airport or City:

Astronomy

Oct. 21, 2019 Rise Set
Actual Time 7:34 AM PDT 6:21 PM PDT
Civil Twilight 7:05 AM PDT 6:49 PM PDT
Nautical Twilight 6:32 AM PDT 7:23 PM PDT
Astronomical Twilight 5:59 AM PDT 7:56 PM PDT
Moon No Moon Rise 3:02 PM PDT (10/21)
Length of Visible Light 11h 44m
Length of Day
10h 46m
Waning Gibbous, 47% of the Moon is Illuminated
Oct 21
Waning Gibbous
Oct 27
New
Nov 4
First Quarter
Nov 12
Full
Nov 19
Last Quarter

Hourly Weather History & Observations

Time (PDT) Temp. Dew Point Humidity Pressure Visibility Wind Dir Wind Speed Gust Speed Precip Events Conditions
12:04 AM 53.1 °F 48.9 °F 86% 30.22 in 10.0 mi Calm Calm - N/A   Overcast
12:48 AM 51.8 °F 48.2 °F 88% 30.23 in 10.0 mi Calm Calm - N/A   Mostly Cloudy
12:53 AM 52.0 °F 48.0 °F 86% 30.24 in 10.0 mi Calm Calm - N/A   Overcast
1:25 AM 52.0 °F 48.9 °F 89% 30.24 in 10.0 mi Calm Calm - N/A   Overcast
1:53 AM 51.1 °F 48.0 °F 89% 30.25 in 10.0 mi Calm Calm - N/A   Overcast
2:53 AM 51.1 °F 48.0 °F 89% 30.26 in 10.0 mi Calm Calm - N/A   Mostly Cloudy
3:53 AM 51.1 °F 48.0 °F 89% 30.27 in 10.0 mi Calm Calm - N/A   Overcast
4:53 AM 51.1 °F 48.0 °F 89% 30.27 in 10.0 mi SE 3.5 mph - N/A   Overcast
5:53 AM 51.1 °F 48.0 °F 89% 30.30 in 10.0 mi Calm Calm - N/A   Mostly Cloudy
6:53 AM 48.9 °F 46.0 °F 90% 30.31 in 10.0 mi NNE 3.5 mph - N/A   Clear
7:44 AM 48.0 °F 46.0 °F 93% 30.32 in 10.0 mi Calm Calm - N/A   Mostly Cloudy
7:53 AM 48.9 °F 46.0 °F 90% 30.33 in 10.0 mi Calm Calm - N/A   Overcast
8:14 AM 50.0 °F 46.0 °F 86% 30.33 in 10.0 mi Calm Calm - N/A   Mostly Cloudy
8:53 AM 51.1 °F 48.0 °F 89% 30.35 in 10.0 mi SE 3.5 mph - N/A   Overcast
9:32 AM 54.0 °F 48.0 °F 80% 30.34 in 10.0 mi SE 5.8 mph - N/A   Scattered Clouds
9:53 AM 55.0 °F 48.9 °F 80% 30.35 in 10.0 mi SE 5.8 mph - N/A   Partly Cloudy
10:53 AM 59.0 °F 48.9 °F 69% 30.35 in 10.0 mi Calm Calm - N/A   Mostly Cloudy
11:53 AM 62.1 °F 48.9 °F 62% 30.35 in 10.0 mi NE 4.6 mph - N/A   Overcast
12:53 PM 64.0 °F 48.9 °F 58% 30.34 in 10.0 mi SW 3.5 mph - N/A   Scattered Clouds
1:53 PM 66.0 °F 46.0 °F 48% 30.32 in 10.0 mi South 6.9 mph - N/A   Mostly Cloudy
2:53 PM 68.0 °F 44.1 °F 42% 30.31 in 10.0 mi Calm Calm - N/A   Overcast
3:53 PM 69.1 °F 46.0 °F 44% 30.32 in 10.0 mi Calm Calm - N/A   Overcast
4:53 PM 69.1 °F 45.0 °F 42% 30.33 in 10.0 mi North 6.9 mph - N/A   Overcast
5:53 PM 68.0 °F 46.9 °F 47% 30.33 in 10.0 mi North 4.6 mph - N/A   Overcast
6:53 PM 66.9 °F 46.9 °F 49% 30.33 in 10.0 mi North 3.5 mph - N/A   Overcast
7:53 PM 62.1 °F 48.0 °F 60% 30.35 in 10.0 mi Calm Calm - N/A   Partly Cloudy
8:53 PM 59.0 °F 48.9 °F 69% 30.36 in 10.0 mi Calm Calm - N/A   Clear
9:53 PM 57.0 °F 48.0 °F 72% 30.36 in 10.0 mi Calm Calm - N/A   Clear
10:53 PM 54.0 °F 46.9 °F 77% 30.38 in 10.0 mi Calm Calm - N/A   Clear
11:53 PM 52.0 °F 46.0 °F 80% 30.39 in 10.0 mi Calm Calm - N/A   Clear